Time,TemperatureF,DewpointF,PressureIn,WindDirection,WindDirectionDegrees,WindSpeedMPH,WindSpeedGustMPH,Humidity,HourlyPrecipIn,Conditions,Clouds,dailyrainin,SoftwareType,DateUTC
2013-11-13 00:03:00,22.7,13.0,30.45,SW,215,2.0,-999.0,65,-99.99,,,0.00,weatherlink.com 1.10,2013-11-13 06:03:00,
2013-11-13 00:18:00,22.9,13.0,30.44,SW,218,0.0,-999.0,65,-99.99,,,0.00,weatherlink.com 1.10,2013-11-13 06:18:00,
2013-11-13 00:33:00,22.9,13.0,30.43,SSW,210,3.0,-999.0,65,-99.99,,,0.00,weatherlink.com 1.10,2013-11-13 06:33:00,
2013-11-13 00:48:00,22.9,13.0,30.43,SSW,207,6.0,-999.0,65,-99.99,,,0.00,weatherlink.com 1.10,2013-11-13 06:48:00,
2013-11-13 01:03:00,23.0,12.0,30.42,SW,232,6.0,-999.0,64,-99.99,,,0.00,weatherlink.com 1.10,2013-11-13 07:03:00,
2013-11-13 01:18:00,23.3,12.0,30.41,SW,225,3.0,-999.0,63,-99.99,,,0.00,weatherlink.com 1.10,2013-11-13 07:18:00,
2013-11-13 01:33:00,23.5,12.0,30.39,SW,219,10.0,-999.0,62,-99.99,,,0.00,weatherlink.com 1.10,2013-11-13 07:33:00,
2013-11-13 01:48:00,23.9,12.0,30.38,SSW,206,7.0,-999.0,60,-99.99,,,0.00,weatherlink.com 1.10,2013-11-13 07:48:00,
2013-11-13 02:03:00,24.4,12.0,30.38,South,179,9.0,-999.0,59,-99.99,,,0.00,weatherlink.com 1.10,2013-11-13 08:03:00,
2013-11-13 02:19:00,24.4,12.0,30.37,SSW,207,7.0,-999.0,59,-99.99,,,0.00,weatherlink.com 1.10,2013-11-13 08:19:00,
2013-11-13 02:34:00,24.7,12.0,30.35,SW,236,9.0,-999.0,59,-99.99,,,0.00,weatherlink.com 1.10,2013-11-13 08:34:00,
2013-11-13 02:49:00,24.5,12.0,30.34,SW,219,4.0,-999.0,59,-99.99,,,0.00,weatherlink.com 1.10,2013-11-13 08:49:00,
2013-11-13 03:03:00,24.8,12.0,30.33,SSW,206,9.0,-999.0,59,-99.99,,,0.00,weatherlink.com 1.10,2013-11-13 09:03:00,
2013-11-13 03:19:00,24.8,12.0,30.33,SSW,205,5.0,-999.0,59,-99.99,,,0.00,weatherlink.com 1.10,2013-11-13 09:19:00,
2013-11-13 03:34:00,24.7,12.0,30.32,SSW,203,4.0,-999.0,59,-99.99,,,0.00,weatherlink.com 1.10,2013-11-13 09:34:00,
2013-11-13 03:49:00,24.8,12.0,30.31,SSW,211,7.0,-999.0,59,-99.99,,,0.00,weatherlink.com 1.10,2013-11-13 09:49:00,
2013-11-13 04:04:00,25.3,12.0,30.31,SSW,210,6.0,-999.0,58,-99.99,,,0.00,weatherlink.com 1.10,2013-11-13 10:04:00,
2013-11-13 04:18:00,25.6,13.0,30.30,SW,230,4.0,-999.0,58,-99.99,,,0.00,weatherlink.com 1.10,2013-11-13 10:18:00,
2013-11-13 04:33:00,25.7,13.0,30.29,SSW,206,5.0,-999.0,59,-99.99,,,0.00,weatherlink.com 1.10,2013-11-13 10:33:00,
2013-11-13 04:48:00,25.8,13.0,30.28,South,176,6.0,-999.0,59,-99.99,,,0.00,weatherlink.com 1.10,2013-11-13 10:48:00,
2013-11-13 05:03:00,26.0,14.0,30.27,South,188,9.0,-999.0,60,-99.99,,,0.00,weatherlink.com 1.10,2013-11-13 11:03:00,
2013-11-13 05:18:00,26.1,13.0,30.25,South,182,6.0,-999.0,59,-99.99,,,0.00,weatherlink.com 1.10,2013-11-13 11:18:00,
2013-11-13 05:33:00,26.3,14.0,30.23,SSE,162,6.0,-999.0,60,-99.99,,,0.00,weatherlink.com 1.10,2013-11-13 11:33:00,
2013-11-13 05:48:00,26.6,14.0,30.22,SW,230,11.0,-999.0,60,-99.99,,,0.00,weatherlink.com 1.10,2013-11-13 11:48:00,
2013-11-13 06:03:00,26.7,15.0,30.22,SW,217,10.0,-999.0,61,-99.99,,,0.00,weatherlink.com 1.10,2013-11-13 12:03:00,
2013-11-13 06:18:00,27.0,15.0,30.21,South,181,6.0,-999.0,60,-99.99,,,0.00,weatherlink.com 1.10,2013-11-13 12:18:00,
2013-11-13 06:33:00,27.2,15.0,30.20,SSW,210,6.0,-999.0,61,-99.99,,,0.00,weatherlink.com 1.10,2013-11-13 12:33:00,
2013-11-13 06:48:00,27.5,16.0,30.20,SW,229,10.0,-999.0,61,-99.99,,,0.00,weatherlink.com 1.10,2013-11-13 12:48:00,
2013-11-13 07:03:00,27.5,16.0,30.19,SSE,159,8.0,-999.0,62,-99.99,,,0.00,weatherlink.com 1.10,2013-11-13 13:03:00,
2013-11-13 07:18:00,27.6,16.0,30.19,SSW,193,3.0,-999.0,62,-99.99,,,0.00,weatherlink.com 1.10,2013-11-13 13:18:00,
2013-11-13 07:33:00,27.2,16.0,30.18,SSW,207,8.0,-999.0,63,-99.99,,,0.00,weatherlink.com 1.10,2013-11-13 13:33:00,
2013-11-13 07:48:00,27.3,16.0,30.17,SW,217,7.0,-999.0,63,-99.99,,,0.00,weatherlink.com 1.10,2013-11-13 13:48:00,
2013-11-13 08:03:00,27.9,16.0,30.17,South,179,7.0,-999.0,62,-99.99,,,0.00,weatherlink.com 1.10,2013-11-13 14:03:00,
2013-11-13 08:18:00,28.5,17.0,30.17,South,174,8.0,-999.0,62,-99.99,,,0.00,weatherlink.com 1.10,2013-11-13 14:18:00,
2013-11-13 08:33:00,29.1,17.0,30.16,SW,215,4.0,-999.0,61,-99.99,,,0.00,weatherlink.com 1.10,2013-11-13 14:33:00,
2013-11-13 08:48:00,30.3,18.0,30.16,SW,221,9.0,-999.0,60,-99.99,,,0.00,weatherlink.com 1.10,2013-11-13 14:48:00,
2013-11-13 09:03:00,31.0,18.0,30.15,SSW,211,4.0,-999.0,59,-99.99,,,0.00,weatherlink.com 1.10,2013-11-13 15:03:00,
2013-11-13 09:18:00,31.8,19.0,30.14,SSW,193,5.0,-999.0,59,-99.99,,,0.00,weatherlink.com 1.10,2013-11-13 15:18:00,
2013-11-13 09:33:00,32.7,19.0,30.14,SW,236,8.0,-999.0,58,-99.99,,,0.00,weatherlink.com 1.10,2013-11-13 15:33:00,
2013-11-13 09:48:00,33.7,20.0,30.13,SSW,207,9.0,-999.0,58,-99.99,,,0.00,weatherlink.com 1.10,2013-11-13 15:48:00,
2013-11-13 10:03:00,34.7,21.0,30.12,SSE,158,13.0,-999.0,57,-99.99,,,0.00,weatherlink.com 1.10,2013-11-13 16:03:00,
2013-11-13 10:19:00,35.6,21.0,30.11,SSW,203,10.0,-999.0,56,-99.99,,,0.00,weatherlink.com 1.10,2013-11-13 16:19:00,
2013-11-13 10:34:00,36.6,22.0,30.09,SW,231,11.0,-999.0,55,-99.99,,,0.00,weatherlink.com 1.10,2013-11-13 16:34:00,
2013-11-13 10:49:00,37.6,23.0,30.08,SSE,168,3.0,-999.0,55,-99.99,,,0.00,weatherlink.com 1.10,2013-11-13 16:49:00,
2013-11-13 11:03:00,38.6,23.0,30.07,SW,227,9.0,-999.0,54,-99.99,,,0.00,weatherlink.com 1.10,2013-11-13 17:03:00,
2013-11-13 11:18:00,39.9,24.0,30.06,South,188,10.0,-999.0,53,-99.99,,,0.00,weatherlink.com 1.10,2013-11-13 17:18:00,
2013-11-13 11:33:00,40.9,24.0,30.04,SW,214,5.0,-999.0,52,-99.99,,,0.00,weatherlink.com 1.10,2013-11-13 17:33:00,
2013-11-13 11:48:00,41.3,25.0,30.02,WSW,237,10.0,-999.0,52,-99.99,,,0.00,weatherlink.com 1.10,2013-11-13 17:48:00,
2013-11-13 12:03:00,41.9,25.0,30.01,SSW,196,15.0,-999.0,51,-99.99,,,0.00,weatherlink.com 1.10,2013-11-13 18:03:00,
2013-11-13 12:18:00,42.5,25.0,30.01,SW,223,11.0,-999.0,51,-99.99,,,0.00,weatherlink.com 1.10,2013-11-13 18:18:00,
2013-11-13 12:33:00,43.8,27.0,29.99,SW,217,4.0,-999.0,51,-99.99,,,0.00,weatherlink.com 1.10,2013-11-13 18:33:00,
2013-11-13 12:48:00,44.8,27.0,29.99,SW,217,6.0,-999.0,50,-99.99,,,0.00,weatherlink.com 1.10,2013-11-13 18:48:00,
2013-11-13 13:03:00,45.8,28.0,29.97,SW,227,9.0,-999.0,50,-99.99,,,0.00,weatherlink.com 1.10,2013-11-13 19:03:00,
2013-11-13 13:18:00,47.0,29.0,29.97,SW,234,10.0,-999.0,49,-99.99,,,0.00,weatherlink.com 1.10,2013-11-13 19:18:00,
2013-11-13 13:34:00,47.7,29.0,29.96,WSW,247,9.0,-999.0,48,-99.99,,,0.00,weatherlink.com 1.10,2013-11-13 19:34:00,
2013-11-13 13:49:00,48.0,30.0,29.95,SW,219,13.0,-999.0,50,-99.99,,,0.00,weatherlink.com 1.10,2013-11-13 19:49:00,
2013-11-13 14:04:00,48.5,30.0,29.95,SSW,193,8.0,-999.0,49,-99.99,,,0.00,weatherlink.com 1.10,2013-11-13 20:04:00,
2013-11-13 14:18:00,48.9,31.0,29.94,SW,219,11.0,-999.0,50,-99.99,,,0.00,weatherlink.com 1.10,2013-11-13 20:18:00,
2013-11-13 14:33:00,49.1,31.0,29.93,SSW,202,10.0,-999.0,50,-99.99,,,0.00,weatherlink.com 1.10,2013-11-13 20:33:00,
2013-11-13 14:48:00,48.9,31.0,29.92,SSW,198,5.0,-999.0,51,-99.99,,,0.00,weatherlink.com 1.10,2013-11-13 20:48:00,
2013-11-13 15:03:00,49.2,32.0,29.92,SW,229,6.0,-999.0,52,-99.99,,,0.00,weatherlink.com 1.10,2013-11-13 21:03:00,
2013-11-13 15:34:00,49.6,33.0,29.91,SSW,196,4.0,-999.0,53,-99.99,,,0.00,weatherlink.com 1.10,2013-11-13 21:34:00,
2013-11-13 15:49:00,49.9,33.0,29.91,SSW,209,5.0,-999.0,53,-99.99,,,0.00,weatherlink.com 1.10,2013-11-13 21:49:00,
2013-11-13 16:04:00,50.8,34.0,29.90,WSW,253,8.0,-999.0,52,-99.99,,,0.00,weatherlink.com 1.10,2013-11-13 22:04:00,
2013-11-13 16:19:00,51.0,33.0,29.89,SSW,211,5.0,-999.0,51,-99.99,,,0.00,weatherlink.com 1.10,2013-11-13 22:19:00,
2013-11-13 16:34:00,50.7,33.0,29.89,SW,216,6.0,-999.0,51,-99.99,,,0.00,weatherlink.com 1.10,2013-11-13 22:34:00,
2013-11-13 16:49:00,50.1,33.0,29.89,SW,222,5.0,-999.0,52,-99.99,,,0.00,weatherlink.com 1.10,2013-11-13 22:49:00,
2013-11-13 17:04:00,49.6,33.0,29.90,SSW,212,4.0,-999.0,53,-99.99,,,0.00,weatherlink.com 1.10,2013-11-13 23:04:00,
2013-11-13 17:18:00,49.2,33.0,29.90,SW,215,3.0,-999.0,53,-99.99,,,0.00,weatherlink.com 1.10,2013-11-13 23:18:00,
2013-11-13 17:33:00,48.8,32.0,29.90,SSW,197,3.0,-999.0,53,-99.99,,,0.00,weatherlink.com 1.10,2013-11-13 23:33:00,
2013-11-13 17:48:00,48.2,32.0,29.91,SSW,200,7.0,-999.0,54,-99.99,,,0.00,weatherlink.com 1.10,2013-11-13 23:48:00,
2013-11-13 18:03:00,47.4,32.0,29.90,SSW,212,9.0,-999.0,55,-99.99,,,0.00,weatherlink.com 1.10,2013-11-14 00:03:00,
2013-11-13 18:18:00,46.7,32.0,29.90,SSW,193,13.0,-999.0,56,-99.99,,,0.00,weatherlink.com 1.10,2013-11-14 00:18:00,
2013-11-13 18:33:00,45.8,32.0,29.90,SSW,205,6.0,-999.0,58,-99.99,,,0.00,weatherlink.com 1.10,2013-11-14 00:33:00,
2013-11-13 18:48:00,45.2,31.0,29.90,SW,214,8.0,-999.0,57,-99.99,,,0.00,weatherlink.com 1.10,2013-11-14 00:48:00,
2013-11-13 19:03:00,44.9,30.0,29.90,SSW,202,6.0,-999.0,57,-99.99,,,0.00,weatherlink.com 1.10,2013-11-14 01:03:00,
2013-11-13 19:18:00,45.2,30.0,29.90,SW,221,3.0,-999.0,56,-99.99,,,0.00,weatherlink.com 1.10,2013-11-14 01:18:00,
2013-11-13 19:34:00,45.7,30.0,29.89,South,188,7.0,-999.0,54,-99.99,,,0.00,weatherlink.com 1.10,2013-11-14 01:34:00,
2013-11-13 19:49:00,46.0,30.0,29.89,SW,231,8.0,-999.0,53,-99.99,,,0.00,weatherlink.com 1.10,2013-11-14 01:49:00,
2013-11-13 20:04:00,46.1,30.0,29.89,SW,229,8.0,-999.0,53,-99.99,,,0.00,weatherlink.com 1.10,2013-11-14 02:04:00,
2013-11-13 20:18:00,46.0,30.0,29.89,SSW,208,6.0,-999.0,53,-99.99,,,0.00,weatherlink.com 1.10,2013-11-14 02:18:00,
2013-11-13 20:33:00,45.4,30.0,29.89,SW,225,9.0,-999.0,55,-99.99,,,0.00,weatherlink.com 1.10,2013-11-14 02:33:00,
2013-11-13 20:48:00,45.1,30.0,29.89,SW,231,4.0,-999.0,55,-99.99,,,0.00,weatherlink.com 1.10,2013-11-14 02:48:00,
2013-11-13 21:03:00,44.5,29.0,29.89,SSW,212,5.0,-999.0,56,-99.99,,,0.00,weatherlink.com 1.10,2013-11-14 03:03:00,
2013-11-13 21:18:00,44.2,30.0,29.89,SW,220,9.0,-999.0,57,-99.99,,,0.00,weatherlink.com 1.10,2013-11-14 03:18:00,
2013-11-13 21:33:00,42.6,29.0,29.88,SSW,207,11.0,-999.0,60,-99.99,,,0.00,weatherlink.com 1.10,2013-11-14 03:33:00,
2013-11-13 21:48:00,41.8,29.0,29.88,SSW,200,2.0,-999.0,62,-99.99,,,0.00,weatherlink.com 1.10,2013-11-14 03:48:00,
2013-11-13 22:03:00,41.1,29.0,29.88,SSW,203,7.0,-999.0,63,-99.99,,,0.00,weatherlink.com 1.10,2013-11-14 04:03:00,
2013-11-13 22:18:00,40.5,29.0,29.88,SW,225,9.0,-999.0,65,-99.99,,,0.00,weatherlink.com 1.10,2013-11-14 04:18:00,
2013-11-13 22:33:00,40.1,29.0,29.87,South,185,3.0,-999.0,65,-99.99,,,0.00,weatherlink.com 1.10,2013-11-14 04:33:00,
2013-11-13 22:48:00,39.3,29.0,29.87,SW,217,5.0,-999.0,67,-99.99,,,0.00,weatherlink.com 1.10,2013-11-14 04:48:00,
2013-11-13 23:03:00,38.9,29.0,29.87,SW,218,8.0,-999.0,68,-99.99,,,0.00,weatherlink.com 1.10,2013-11-14 05:03:00,
2013-11-13 23:18:00,38.5,29.0,29.87,SSW,197,3.0,-999.0,69,-99.99,,,0.00,weatherlink.com 1.10,2013-11-14 05:18:00,
2013-11-13 23:33:00,38.0,29.0,29.86,SSW,208,6.0,-999.0,70,-99.99,,,0.00,weatherlink.com 1.10,2013-11-14 05:33:00,
2013-11-13 23:48:00,37.5,29.0,29.86,South,181,5.0,-999.0,71,-99.99,,,0.00,weatherlink.com 1.10,2013-11-14 05:48:00,